Flag for U.S.A. Weather past 2 weeks in Baltimore, Maryland, U.S.A.

Now
49 °F

Broken clouds.


Feels Like: 49 °F
Forecast: 47 / 71 °F
Wind: No wind

Location: Baltimore-Washington International Airport

Current Time: May 23, 2015 at 7:56:16 AM

Latest Report: May 23, 2015 at 6:54 AM


Visibility: 10 mi

Pressure: 30.41 "Hg

Humidity: 59%

Dew point: 35 °F

Location of BaltimoreLocation

Historic Weather in Baltimore — Graph

°F

Baltimore temperature yesterday

Maximum temperature yesterday: 74 °F (at 3:54 PM)
Minimum temperature yesterday: 48 °F (at 4:54 AM)
Average temperature yesterday: 62 °F

Past Weeks' High & Low Weather Summary

 TemperatureHumidityPressure
High88 °F (May 12, 2:54 PM)97% (May 10, 2:54 AM)30.45 "Hg (May 10, 2:54 AM)
Low46 °F (May 23, 5:54 AM)27% (May 14, 2:54 PM)29.81 "Hg (May 19, 6:54 PM)
Average68 °F65%30.10 "Hg
* Reported May 8 5:54 AM — May 23 5:54 AM, Baltimore, Weather by CustomWeather, © 2015

Note: Actual official high and low records may vary slightly from our data, if they occured in-between our weather recording intervals... More about our weather records

Advertising

Baltimore weather history for previous 24 hours

 ConditionsComfort  
Time TempWeatherWind HumidityBarometerVisibility
5:54 AM
Sat, May 23
46 °FPassing clouds.No wind61%30.37 "Hg10 mi
4:54 AM47 °FPassing clouds.3 mph56%30.34 "Hg10 mi
3:54 AM50 °FPassing clouds.6 mph48%30.31 "Hg10 mi
2:54 AM53 °FPassing clouds.6 mph43%30.29 "Hg10 mi
1:54 AM57 °FPassing clouds.5 mph37%30.26 "Hg10 mi
12:54 AM59 °FPassing clouds.6 mph35%30.25 "Hg10 mi
11:54 PM
Fri, May 22
59 °FPassing clouds.6 mph42%30.23 "Hg10 mi
10:54 PM63 °FPassing clouds.7 mph48%30.20 "Hg10 mi
9:54 PM63 °FPassing clouds.6 mph52%30.15 "Hg10 mi
8:54 PM63 °FScattered clouds.6 mph50%30.11 "Hg10 mi
7:54 PM69 °FPassing clouds.12 mph38%30.10 "Hg10 mi
6:54 PM72 °FScattered clouds.15 mph33%30.07 "Hg10 mi
5:54 PM72 °FScattered clouds.18 mph30%30.05 "Hg10 mi
4:54 PM74 °FScattered clouds.17 mph31%30.05 "Hg10 mi
3:54 PM74 °FPassing clouds.14 mph32%30.05 "Hg10 mi
2:54 PM73 °FPassing clouds.13 mph36%30.06 "Hg10 mi
1:54 PM72 °FScattered clouds.17 mph35%30.06 "Hg10 mi
12:54 PM70 °FScattered clouds.14 mph38%30.07 "Hg10 mi
11:54 AM69 °FPassing clouds.16 mph38%30.08 "Hg10 mi
10:54 AM67 °FSunny.16 mph44%30.06 "Hg10 mi
9:54 AM64 °FSunny.12 mph49%30.06 "Hg10 mi
8:54 AM59 °FSunny.9 mph62%30.05 "Hg10 mi
7:54 AM54 °FSunny.9 mph72%30.03 "Hg9 mi
Weather by CustomWeather, © 2015

See weather overviewHow to use our weather pages